Regional Weather Roundup
Issued by NWS New Orleans/Baton Rouge, LA

Home | Current Version | Previous Version | Text Only | Print | Product List | Glossary Off
Versions: 1 2 3 4 5 6 7 8 9 10 11 12 13 14 15 16 17 18 19 20 21 22 23 24 25 26 27 28 29 30 31 32 33 34 35 36 37 38 39 40 41 42 43 44 45 46 47 48 49 50

584
ASUS44 KLIX 040901
RWRLIX
NEW ORLEANS REGIONAL WEATHER ROUNDUP
NATIONAL WEATHER SERVICE NEW ORLEANS LA
300 AM CST WED MAR 04 2015

NOTE: "FAIR" INDICATES FEW OR NO CLOUDS BELOW 12,000 FEET WITH NO
      SIGNIFICANT WEATHER AND/OR OBSTRUCTIONS TO VISIBILITY.
      SKY/WX - SKY CONDITION AND SIGNIFICANT WEATHER.
      TMP - AIR TEMPERATURE.     DP    - DEWPOINT TEMPERATURE.
      RH  - RELATIVE HUMIDITY.   PRES  - PRESSURE.
      HI  - HEAT INDEX.          WCI   - WIND CHILL INDEX.

*  THESE STATIONS ARE NOT NWS OR FAA STATIONS AND ARE NOT UNDER
   NWS QUALITY CONTROL.

LAZ038-040-048-061>063-065>067-069-041000-
SOUTHEAST LOUISIANA

CITY           SKY/WX    TMP DP  RH WIND       PRES   REMARKS
N.O. AUDUBON   NOT AVBL
N.O. INTL ARPT MOCLDY    68  65  90 S7        29.96F
N.O. LAKEFRONT CLEAR     67  64  90 SE5       29.97F
SLIDELL        MOCLDY    67  67 100 S7        29.96F
BATON ROUGE    CLOUDY    69  68  96 S7        29.96S
BOOTHVILLE     FOG       63  62  97 SE6       29.99F VSB 1/4
BELLE CHASSE   CLEAR     66  63  90 SE6       29.96F
BOGALUSA*        N/A     70  66  86 S7        29.99F
GALLIANO*      CLOUDY    66  65  96 CALM      29.97S
NEW ROADS*     NOT AVBL
GONZALES*      NOT AVBL
HAMMOND*       NOT AVBL
HOUMA*         FOG       64  64 100 E3        29.96F VSB 1/4
PORT FOURCHON* PTSUNNY   70  68  94 S5        30.00S

$$

MSZ070-080>082-041000-
SOUTHERN MISSISSIPPI

CITY           SKY/WX    TMP DP  RH WIND       PRES   REMARKS
MCCOMB         CLOUDY    67  66  97 S7        29.97F FOG
GULFPORT       FOG       65  64  97 SE13      29.99F VSB 3/4
BILOXI         PTCLDY    66  66 100 S9        29.99S
PASCAGOULA     CLOUDY    65  65 100 SE7       30.00F FOG

$$

COASTAL OBSERVATIONS
LAKE AND NEARSHORE STATIONS

STATION/POSITION TIME  TEMP    WIND        PRES    WAVE
                       AIR SEA DIR/SP/G            HT/PER
                 (UTC) (F)     (DEG/KT/KT) (MB)    (FT/S)
PASCAGOULA       0823   64     130/  7/ 12 1015.7
WAVELAND YACHT   0823   62 60  160/  8/ 10 1015.4
GRAND ISLE       0823   68 64  140/  4/  9 1015.6
SOUTHWEST PASS   0823   64 45  160/ 10/ 12 1015.7
NEW CANAL        0823   67     140/  2/  3 1015.4
SHELL BEACH      0823   65 62  120/  8/  9 1015.3

OFFSHORE STATIONS

STATION/POSITION TIME  TEMP    WIND        PRES    WAVE
                       AIR SEA DIR/SP/G            HT/PER
                 (UTC) (F)     (DEG/KT/KT) (MB)    (FT/S)
64 S DAUPHIN ISL 0802   71 71  150/ 14/ 16 1016.3    4/ 6

$$




USA.gov is the U.S. government's official web portal to all federal, state and local government web resources and services.